[ hide orbit diagram ]
For accurate long-term ephemerides, please instead use our Horizons system.This orbit viewer was implemented using two-body methods, and hence should not be used for determining accurate long-term trajectories (over several years or decades) or planetary encounter circumstances.
Orbital Elements at Epoch 2459000.5 (2020-May-31.0) TDB
Reference: JPL 18 (heliocentric ecliptic J2000)
Element | Value | Uncertainty (1-sigma) | Units |
e | .2088125770830782 | 2.1548e-05 | |
a | 38.95262373495372 | 0.0011805 | au |
q | 30.81882598871055 | 0.001338 | au |
i | 1.378618408021094 | 0.00011521 | deg |
node | 267.8571123510432 | 0.0012026 | deg |
peri | 282.0779273721985 | 0.0063751 | deg |
M | 276.9006865235642 | 0.007225 | deg |
tp | 2479497.883923584413 (2076-Jul-13.38392358) | 1.0943 | TDB |
period | 88798.06467453968 243.12 | 4.0367 0.01105 | d yr |
n | .004054142410867427 | 1.843e-07 | deg/d |
Q | 47.08642148119689 | 0.001427 | au |
|
| | Orbit Determination Parameters
Additional Information
|
[ show covariance matrix ]
307463 (2002 VU130) Discovered 2002-Nov-07 by Buie, M. W. at Kitt Peak |
Reference: 20111210/Numbers.arc | Last Updated: 2011-12-12 |
|
|